Weather in Narbonne

France     43°10′49″N   3°00′04″E
temp.,
°C
wind,
m/s
gust,
m/s
humid.,
%
clouds,
%
prec.,
mm/h
press.,
hPa
HPBL,
m
15 august, mon
mon1523:00+25w365538 0.0 1009259
02:00+23wnw23565 0.0 1009105
05:00+20wnw3568100 0.0 1009124
08:00+21w47680 0.0 1009218
11:00+28wnw55445 0.0 10081289
14:00+32nw44280 0.0 10072202
17:00+33wnw54242 0.0 10062707
20:00+30w143273 0.0 1006302
16 august, tue
tue1623:00+25nnw22431 0.0 100718
02:00+22wnw12450 0.0 100837
05:00+21nnw11490 0.0 100719
08:00+22ne24470 0.0 1007125
11:00+28ese67400 0.0 1007902
14:00+30se78466 0.0 10071203
17:00+29ese8105985 0.0 1006903
20:00+28ese143797 0.0 1005180
17 august, wed
wed1723:00+23wnw11681 0.4 100828
02:00+20w58800 0.7 1009211
05:00+19w588468 0.2 1009206
08:00+19w4685100 1.2 1010218
11:00+21w5778100 0.9 1011372
14:00+24nw356683 3.1 1011586
17:00+26n455520 0.8 1009814
20:00+23wsw6966100 1.9 1011329
18 august, thu
thu1823:00+20w51377100 1.8 1012426
02:00+19wnw6127486 1.8 1013518
05:00+18w6118141 0.1 1013400
08:00+18w612795 0.1 1014584
11:00+23wnw8105192 0.0 10151142
14:00+27wnw893743 0.0 10141547
17:00+29nw89303 0.0 10132426
20:00+25wnw7944100 0.0 10141197
19 august, fri
fri1923:00+21wnw81466100 0.1 1017740
02:00+20wnw9167144 0.1 1017778
05:00+19w8157592 0.0 1017754
08:00+19wnw916752 0.0 1018719
11:00+24wnw10145415 0.0 10181123
14:00+29nw911385 0.0 10182051
17:00+31wnw9102832 0.0 10162757
20:00+27wnw813400 0.0 10171277